Location: Asheville, NC
(35.6000°N, 82.5500°W)
Time: 07:33:14
(UTC-04:00)

Vanguard 3 - Pass Details

Date: 13 February 2018
Orbit: 508 x 3264 km, 33.4° (Epoch: 21 May)

Event Time Altitude Azimuth Distance (km) Brightness Sun altitude
Rises 23:41:37 0° 272° (W) 3,560 - -63.4°
Reaches altitude 10° 23:44:04 10° 261° (W) 2,891 - -63.7°
Maximum altitude 23:50:18 31° 201° (SSW) 2,367 - -64.4°
Drops below altitude 10° 00:00:16 10° 146° (SSE) 4,688 - -65.3°
Sets 00:05:32 0° 138° (SE) 6,171 - -65.8°
